Tracking 20376 objects as of 20-Feb-2020
HD Live streaming from Space Station
objects crossing your sky now
Track the group of recently launched Starlink satellites

OPS 3165

Track OPS 3165 now!
OPS 3165 is classified as:


NORAD ID: 8482
Int'l Code: 1975-118A
Perigee: 35,609.1 km
Apogee: 35,870.9 km
Inclination: 8.1 °
Period: 1,433.4 minutes
Semi major axis: 42110 km
RCS: Unknown
Launch date: December 14, 1975
Source: United States (US)
Launch site: AIR FORCE EASTERN TEST RANGE (AFETR)
aabbcc
Your satellite tracking list
Your tracking list is empty




NASA's NSSDC Master Catalog

Two Line Element Set (TLE):
1  8482U 75118A   20051.43156175  .00000106  00000-0  00000+0 0  9990
2  8482   8.0572 297.1348 0031083 319.2834 238.8615  1.00463880  3045
Source of the keplerian elements: McCants